Вернуться в каталог

STARLINK-1553

АктивенСвязьVLEO
NORAD 46348·PAYLOAD·🇺🇸 United States

Запущен Sep 3, 2020 с Cape Canaveral Space Force Station

Loading…

Ближайшие Пролёты (ближайшие 24 часа)

TLE

СвежийSource: CelesTrak SupGP

Эпоха: Sep 15, 2026, 01:44 UTC

1 46348C 20062AA  26258.07270833  .00074235  00000+0  14693-2 0  2581
2 46348  53.0319 129.3188 0003801  75.7087 313.0998 15.46445612    18

Отслеживайте STARLINK-1553 в реальном времени с AllMySat

Download on the App Store